CDT,Max TemperatureF,Mean TemperatureF,Min TemperatureF,Max Dew PointF,MeanDew PointF,Min DewpointF,Max Humidity, Mean Humidity, Min Humidity, Max Sea Level PressureIn, Mean Sea Level PressureIn, Min Sea Level PressureIn, Max VisibilityMiles, Mean VisibilityMiles, Min VisibilityMiles, Max Wind SpeedMPH, Mean Wind SpeedMPH, Max Gust SpeedMPH,PrecipitationIn, CloudCover, Events, WindDirDegrees
2012-10-1,82,70,57,55,51,43,88,57,26,29.87,29.83,29.79,10,10,5,17,7,23,0.00,1,,315
2012-10-2,78,69,60,57,53,50,82,59,36,29.98,29.92,29.86,10,10,10,13,7,17,0.00,1,,347
2012-10-3,82,68,53,55,52,45,94,61,26,30.03,29.99,29.95,10,10,10,14,5,20,0.00,0,,161
2012-10-4,86,72,59,64,60,52,94,64,45,30.13,30.08,30.03,10,10,10,16,8,22,0.00,4,,141
2012-10-5,86,72,55,68,62,48,94,69,45,30.11,30.05,29.98,10,10,7,17,9,25,0.00,6,,192
2012-10-6,55,50,46,48,44,37,82,72,58,30.26,30.16,30.10,10,10,7,15,11,22,0.00,8,,14
2012-10-7,51,48,46,37,35,32,71,61,47,30.32,30.26,30.20,10,10,10,13,7,20,0.00,8,,11
2012-10-8,64,52,39,43,38,34,81,61,37,30.28,30.19,30.08,10,10,7,8,2,,0.00,0,,129
2012-10-9,77,62,48,61,53,43,88,72,57,30.09,29.99,29.88,10,10,10,20,9,24,0.00,4,,153
2012-10-10,69,64,60,64,61,59,94,86,73,30.16,30.09,29.98,10,6,2,9,3,,0.00,6,,50
2012-10-11,84,73,62,70,65,59,94,81,58,30.17,30.11,30.06,10,8,4,20,5,26,0.01,6,,137
2012-10-12,82,74,66,70,66,63,94,77,51,30.20,30.14,30.08,10,8,2,13,7,16,0.00,4,,154
2012-10-13,82,76,69,70,66,64,88,76,54,30.09,29.98,29.85,10,10,5,24,13,36,0.00,5,,167
2012-10-14,80,70,60,68,56,46,94,63,30,30.09,30.01,29.87,10,10,1,25,11,37,0.55,1,,296
2012-10-15,80,66,51,55,48,41,94,59,24,30.13,30.05,29.98,10,10,3,7,2,,0.03,0,,184
2012-10-16,73,64,55,61,54,50,94,74,50,30.00,29.85,29.72,10,10,10,17,6,23,0.00,2,,165
2012-10-17,87,76,62,64,56,45,94,62,23,29.81,29.66,29.56,10,10,7,23,15,30,0.00,4,,223
2012-10-18,73,62,51,48,32,21,63,33,14,30.02,29.94,29.80,10,10,10,15,6,21,0.00,0,,354
2012-10-19,77,62,46,39,31,19,71,37,13,30.04,29.97,29.90,10,10,10,15,6,23,0.00,0,,278
2012-10-20,86,66,46,64,52,37,81,61,45,29.92,29.84,29.76,10,10,10,22,9,28,0.00,0,,168
2012-10-21,87,80,73,68,67,64,83,68,46,29.91,29.86,29.80,10,10,10,24,15,30,0.00,5,,170
2012-10-22,86,77,68,68,66,61,94,76,48,30.01,29.95,29.90,10,10,0,16,11,24,0.54,5,,164
2012-10-23,82,74,66,68,65,63,94,74,54,29.99,29.94,29.90,10,10,7,17,10,21,0.00,3,,166
2012-10-24,82,73,64,64,62,61,94,74,48,30.01,29.93,29.85,10,10,7,18,9,25,0.00,2,,162
2012-10-25,80,66,53,66,60,43,94,77,57,30.08,29.92,29.83,10,10,4,24,12,29,0.08,5,,193
2012-10-26,53,50,44,41,37,32,81,63,50,30.32,30.22,30.08,10,10,7,21,15,26,0.03,6,,352
2012-10-27,57,47,37,34,32,27,81,58,33,30.34,30.26,30.17,10,10,5,18,10,26,0.00,0,,353
2012-10-28,60,46,33,37,30,23,93,55,23,30.31,30.25,30.19,10,10,10,14,5,20,0.00,0,,351
2012-10-29,66,52,37,34,30,23,87,52,19,30.32,30.24,30.14,10,10,10,5,1,,0.00,0,,99
2012-10-30,75,56,37,43,37,32,87,56,24,30.14,30.05,29.95,10,10,10,10,3,,0.00,0,,190
2012-10-31,80,63,46,50,44,41,87,58,26,30.03,29.99,29.96,10,10,2,8,4,,0.00,0,,222